Hourly Data Report for January 10, 2019

TORONTO CITY
ONTARIO
Current Station Operator: ECCC - MSC

43°40'00.000" N
79°24'00.000" W
112.50 m
6158355
71508
XTO

Download Data

Hourly Data (January 2019)
Hourly Data Report for January 10, 2019
TIME
LST
Temp Definition
°C
Dew Point Definition
°C
Rel Hum Definition
%
Precip. Amount Definition
mm

Wind Dir Definition
10's deg

Wind Spd Definition
km/h
Visibility Definition
km
Stn Press Definition
kPa
Hmdx Definition


Wind Chill Definition


Weather Definition


00:00 -3.3 -8.0 69 0.0 LegendMM LegendMM   99.71     LegendNANA
01:00 -3.5 -7.4 75 0.0 LegendMM LegendMM   99.76     LegendNANA
02:00 -3.6 -8.2 71 0.0 LegendMM LegendMM   99.85     LegendNANA
03:00 -4.1 -8.1 74 0.0 LegendMM LegendMM   99.92     LegendNANA
04:00 -4.4 -9.4 68 0.0 LegendMM LegendMM   99.93     LegendNANA
05:00 -5.0 -9.5 71 0.0 LegendMM LegendMM   100.02     LegendNANA
06:00 -4.9 -9.1 72 0.0 LegendMM LegendMM   100.07     LegendNANA
07:00 -5.3 -10.2 68 0.0 LegendMM LegendMM   100.15     LegendNANA
08:00 -6.0 -11.0 68 0.0 LegendMM LegendMM   100.25     LegendNANA
09:00 -5.9 -10.7 69 0.0 LegendMM LegendMM   100.34     LegendNANA
10:00 -5.2 -10.9 64 0.0 LegendMM LegendMM   100.40     LegendNANA
11:00 -5.0 -10.9 63 0.0 LegendMM LegendMM   100.45     LegendNANA
12:00 -5.1 -11.6 60 0.0 LegendMM LegendMM   100.41     LegendNANA
13:00 -4.5 -11.3 59 0.0 LegendMM LegendMM   100.43     LegendNANA
14:00 -4.8 -12.9 53 0.0 LegendMM LegendMM   100.45     LegendNANA
15:00 -5.4 -13.6 53 0.0 LegendMM LegendMM   100.53     LegendNANA
16:00 -6.5 -13.7 57 0.0 LegendMM LegendMM   100.62     LegendNANA
17:00 -7.3 -13.9 59 0.0 LegendMM LegendMM   100.69     LegendNANA
18:00 -7.6 -12.1 70 0.0 LegendMM LegendMM   100.77     LegendNANA
19:00 -8.7 -13.5 68 0.0 LegendMM LegendMM   100.86     LegendNANA
20:00 -8.6 -13.2 69 0.0 LegendMM LegendMM   100.92     LegendNANA
21:00 -8.4 -12.1 75 0.0 LegendMM LegendMM   100.95     LegendNANA
22:00 -8.8 -13.0 72 0.0 LegendMM LegendMM   100.98     LegendNANA
23:00 -9.1 -13.9 68 0.0 LegendMM LegendMM   101.02     LegendNANA

Notes on Data Quality.

Legend

  • E = Estimated
  • M = Missing
  • NA = Not Available*
  • [empty] = Indicates an unobserved value
Date modified: